When you browse on this site, cookies collect data to enhance your experience and personalize the content and advertising you see.
Visit our Privacy Policy to learn more. By continuing to use the site, you agree to this use of cookies and data.
  • In Hungary
  • List of Countries
  • For 7 days
  • Water Temperature
  • Weather Map
  • News
  • Weather Widgets
  • user-avatar
    Login

    Hourly Weather Torre Annunziata

    Today, 6 April, Monday

    Time Temperature Precipitation Wind Pressure Humidity
    00:00 +13°C° 0 mm 3 mps 763 mmHg 52%
    01:00 +12°C° 0 mm 3 mps 763 mmHg 52%
    02:00 +12°C° 0 mm 3 mps 763 mmHg 54%
    03:00 +12°C° 0 mm 3 mps 763 mmHg 56%
    04:00 +12°C° 0 mm 3 mps 763 mmHg 58%
    05:00 +12°C° 0 mm 4 mps 763 mmHg 59%
    06:00 +12°C° 0 mm 4 mps 764 mmHg 60%
    07:00 +12°C° 0 mm 4 mps 764 mmHg 57%
    08:00 +14°C° 0 mm 4 mps 764 mmHg 51%
    09:00 +17°C° 0 mm 4 mps 765 mmHg 46%
    10:00 +18°C° 0 mm 3 mps 765 mmHg 40%
    11:00 +19°C° 0 mm 3 mps 765 mmHg 40%
    12:00 +20°C° 0 mm 3 mps 765 mmHg 39%
    13:00 +21°C° 0 mm 3 mps 766 mmHg 38%
    14:00 +20°C° 0 mm 3 mps 766 mmHg 42%
    15:00 +19°C° 0 mm 3 mps 766 mmHg 45%
    16:00 +19°C° 0 mm 2 mps 766 mmHg 48%
    17:00 +18°C° 0 mm 2 mps 766 mmHg 52%
    18:00 +17°C° 0 mm 2 mps 766 mmHg 55%
    19:00 +16°C° 0 mm 1 mps 766 mmHg 58%
    20:00 +15°C° 0 mm 2 mps 767 mmHg 59%
    21:00 +15°C° 0 mm 2 mps 767 mmHg 60%
    22:00 +14°C° 0 mm 2 mps 768 mmHg 61%
    23:00 +14°C° 0 mm 2 mps 768 mmHg 61%

    Tomorrow, 7 April, Tuesday

    Time Temperature Precipitation Wind Pressure Humidity
    00:00 +13°C° 0 mm 2 mps 768 mmHg 61%
    01:00 +13°C° 0 mm 2 mps 768 mmHg 61%
    02:00 +13°C° 0 mm 2 mps 768 mmHg 60%
    03:00 +13°C° 0 mm 2 mps 767 mmHg 58%
    04:00 +11°C° 0 mm 3 mps 767 mmHg 57%
    05:00 +13°C° 0 mm 2 mps 767 mmHg 55%
    06:00 +13°C° 0 mm 2 mps 768 mmHg 54%
    07:00 +13°C° 0 mm 2 mps 768 mmHg 52%
    08:00 +15°C° 0 mm 2 mps 768 mmHg 47%
    09:00 +17°C° 0 mm 2 mps 768 mmHg 41%
    10:00 +20°C° 0 mm 1 mps 768 mmHg 35%
    11:00 +20°C° 0 mm 2 mps 768 mmHg 34%
    12:00 +21°C° 0 mm 2 mps 768 mmHg 34%
    13:00 +22°C° 0 mm 3 mps 768 mmHg 33%
    14:00 +21°C° 0 mm 3 mps 768 mmHg 36%
    15:00 +21°C° 0 mm 3 mps 768 mmHg 38%
    16:00 +21°C° 0 mm 3 mps 768 mmHg 40%
    17:00 +19°C° 0 mm 3 mps 768 mmHg 46%
    18:00 +18°C° 0 mm 3 mps 768 mmHg 51%
    19:00 +17°C° 0 mm 2 mps 768 mmHg 56%
    20:00 +16°C° 0 mm 2 mps 768 mmHg 58%
    21:00 +16°C° 0 mm 2 mps 769 mmHg 59%
    22:00 +15°C° 0 mm 2 mps 769 mmHg 61%
    23:00 +15°C° 0 mm 2 mps 769 mmHg 60%

    Day after tomorrow, 8 April, Wednesday

    Time Temperature Precipitation Wind Pressure Humidity
    00:00 +14°C° 0 mm 2 mps 769 mmHg 59%
    01:00 +13°C° 0 mm 2 mps 768 mmHg 58%
    02:00 +13°C° 0 mm 2 mps 768 mmHg 56%
    03:00 +13°C° 0 mm 2 mps 768 mmHg 54%
    04:00 +13°C° 0 mm 2 mps 768 mmHg 53%
    05:00 +13°C° 0 mm 2 mps 768 mmHg 51%
    06:00 +13°C° 0 mm 2 mps 768 mmHg 49%
    07:00 +14°C° 0 mm 2 mps 768 mmHg 47%
    08:00 +16°C° 0 mm 1 mps 767 mmHg 42%
    09:00 +18°C° 0 mm 1 mps 767 mmHg 36%
    10:00 +20°C° 0 mm 1 mps 767 mmHg 30%
    11:00 +21°C° 0 mm 1 mps 767 mmHg 31%
    12:00 +21°C° 0 mm 2 mps 767 mmHg 31%
    13:00 +21°C° 0 mm 3 mps 767 mmHg 31%
    14:00 +21°C° 0 mm 3 mps 766 mmHg 34%
    15:00 +20°C° 0 mm 3 mps 766 mmHg 37%
    16:00 +20°C° 0 mm 3 mps 766 mmHg 40%
    17:00 +19°C° 0 mm 3 mps 766 mmHg 45%
    18:00 +18°C° 0 mm 3 mps 766 mmHg 49%
    19:00 +17°C° 0 mm 2 mps 766 mmHg 53%
    20:00 +16°C° 0 mm 2 mps 766 mmHg 54%
    21:00 +16°C° 0 mm 2 mps 766 mmHg 55%
    22:00 +15°C° 0 mm 1 mps 766 mmHg 56%
    23:00 +15°C° 0 mm 1 mps 766 mmHg 56%

    9 April, Thursday

    Time Temperature Precipitation Wind Pressure Humidity
    00:00 +14°C° 0 mm 1 mps 766 mmHg 55%
    01:00 +14°C° 0 mm 1 mps 766 mmHg 55%
    02:00 +13°C° 0 mm 1 mps 766 mmHg 54%
    03:00 +13°C° 0 mm 1 mps 765 mmHg 53%
    04:00 +13°C° 0 mm 1 mps 765 mmHg 52%
    05:00 +13°C° 0 mm 1 mps 765 mmHg 50%
    06:00 +14°C° 0 mm 2 mps 765 mmHg 48%
    07:00 +14°C° 0 mm 2 mps 765 mmHg 46%
    08:00 +16°C° 0 mm 2 mps 765 mmHg 40%
    09:00 +19°C° 0 mm 1 mps 765 mmHg 34%
    10:00 +21°C° 0 mm 1 mps 765 mmHg 28%
    11:00 +20°C° 0 mm 2 mps 765 mmHg 28%
    12:00 +21°C° 0 mm 2 mps 765 mmHg 28%
    13:00 +23°C° 0 mm 2 mps 765 mmHg 28%
    14:00 +21°C° 0 mm 2 mps 764 mmHg 32%
    15:00 +21°C° 0 mm 2 mps 764 mmHg 37%
    16:00 +20°C° 0 mm 3 mps 764 mmHg 41%
    17:00 +19°C° 0 mm 2 mps 764 mmHg 47%
    18:00 +18°C° 0 mm 2 mps 764 mmHg 53%
    19:00 +16°C° 0 mm 1 mps 764 mmHg 59%
    20:00 +16°C° 0 mm 1 mps 764 mmHg 60%
    21:00 +16°C° 0 mm 1 mps 765 mmHg 62%
    22:00 +14°C° 0 mm 0 mps 765 mmHg 64%
    23:00 +14°C° 0 mm 0 mps 765 mmHg 65%

    10 April, Friday

    Time Temperature Precipitation Wind Pressure Humidity
    00:00 +15°C° 0 mm 1 mps 765 mmHg 67%
    01:00 +14°C° 0 mm 1 mps 765 mmHg 68%
    02:00 +14°C° 0 mm 1 mps 764 mmHg 70%
    03:00 +14°C° 0 mm 1 mps 764 mmHg 71%
    04:00 +13°C° 0 mm 1 mps 764 mmHg 72%
    05:00 +14°C° 0 mm 1 mps 764 mmHg 70%
    06:00 +14°C° 0 mm 1 mps 764 mmHg 69%
    07:00 +15°C° 0 mm 1 mps 764 mmHg 67%
    08:00 +16°C° 0 mm 1 mps 764 mmHg 60%
    09:00 +19°C° 0 mm 1 mps 764 mmHg 53%
    10:00 +21°C° 0 mm 1 mps 764 mmHg 47%
    11:00 +21°C° 0 mm 2 mps 764 mmHg 44%
    12:00 +21°C° 0 mm 2 mps 764 mmHg 42%
    13:00 +22°C° 0 mm 3 mps 764 mmHg 40%
    14:00 +21°C° 0 mm 3 mps 764 mmHg 43%
    15:00 +21°C° 0 mm 3 mps 764 mmHg 45%
    16:00 +21°C° 0 mm 3 mps 763 mmHg 48%
    17:00 +19°C° 0 mm 3 mps 763 mmHg 53%
    18:00 +18°C° 0 mm 2 mps 763 mmHg 58%
    19:00 +17°C° 0 mm 2 mps 763 mmHg 64%
    20:00 +16°C° 0 mm 1 mps 764 mmHg 66%
    21:00 +16°C° 0 mm 1 mps 764 mmHg 68%
    22:00 +16°C° 0 mm 1 mps 764 mmHg 70%
    23:00 +15°C° 0 mm 1 mps 764 mmHg 73%

    11 April, Saturday

    Time Temperature Precipitation Wind Pressure Humidity
    00:00 +15°C° 0 mm 1 mps 764 mmHg 75%
    01:00 +14°C° 0 mm 1 mps 764 mmHg 78%
    02:00 +14°C° 0 mm 1 mps 764 mmHg 79%
    03:00 +14°C° 0 mm 1 mps 764 mmHg 80%
    04:00 +14°C° 0 mm 1 mps 764 mmHg 80%
    05:00 +14°C° 0 mm 1 mps 764 mmHg 78%
    06:00 +14°C° 0 mm 1 mps 764 mmHg 76%
    07:00 +15°C° 0 mm 1 mps 764 mmHg 74%
    08:00 +16°C° 0 mm 1 mps 764 mmHg 66%
    09:00 +18°C° 0 mm 2 mps 764 mmHg 59%
    10:00 +20°C° 0 mm 2 mps 764 mmHg 51%
    11:00 +20°C° 0 mm 2 mps 764 mmHg 50%
    12:00 +21°C° 0 mm 2 mps 764 mmHg 48%
    13:00 +22°C° 0 mm 3 mps 764 mmHg 47%
    14:00 +21°C° 0 mm 3 mps 764 mmHg 47%
    15:00 +21°C° 0 mm 3 mps 763 mmHg 47%
    16:00 +20°C° 0 mm 3 mps 763 mmHg 48%
    17:00 +19°C° 0 mm 3 mps 763 mmHg 51%
    18:00 +18°C° 0 mm 2 mps 763 mmHg 54%
    19:00 +17°C° 0 mm 2 mps 763 mmHg 58%
    20:00 +16°C° 0 mm 2 mps 763 mmHg 59%
    21:00 +16°C° 0 mm 1 mps 764 mmHg 60%
    22:00 +15°C° 0 mm 1 mps 764 mmHg 62%
    23:00 +15°C° 0 mm 1 mps 764 mmHg 64%
    Show more